Regional Weather Roundup
Issued by NWS

Home | Current Version | Previous Version | Text Only | Print | Product List | Glossary Off
Versions: 1 2 3 4 5 6 7 8 9 10 11 12 13 14 15 16 17 18 19 20 21 22 23 24 25 26 27 28 29 30 31 32 33 34 35 36 37 38 39 40 41 42 43 44 45 46 47 48 49 50

000
ASUS44 KMEG 232100
RWRTN
TENNESSEE HOURLY STATE WEATHER ROUNDUP
NATIONAL WEATHER SERVICE MEMPHIS TN
300 PM CST THU NOV 23 2017

TNZ002-004-019-021-049-052-054-088>092-232200-
WEST TENNESSEE

CITY           SKY/WX    TMP DP  RH WIND       PRES   REMARKS
MEMPHIS INTL   MOSUNNY   55  21  26 NW3       30.06F
NWS MEMPHIS      N/A     55 N/A N/A MISG        N/A
JACKSON        SUNNY     53  20  27 NW3       30.06F
DYERSBURG      SUNNY     52  23  32 W7        30.07F
$$

TNZ008-025-027-028-033-062-065-066-232200-
NORTH MIDDLE TENNESSEE

CITY           SKY/WX    TMP DP  RH WIND       PRES   REMARKS
NASHVILLE      MOSUNNY   54  20  26 NW5       30.05F
CLARKSVILLE    SUNNY     52  19  27 CALM      30.04F
SMYRNA         SUNNY     53  23  31 NW3       30.05F
CROSSVILLE     SUNNY     53  30  41 W7        30.01S
$$

TNZ061-075-076-078-094-096-097-232200-
SOUTH MIDDLE TENNESSEE

CITY           SKY/WX    TMP DP  RH WIND       PRES   REMARKS
WINCHESTER     SUNNY     55  32  41 N5        30.01S
$$

TNZ017-018-042-046-047-232200-
NORTHEAST TENNESSEE

CITY           SKY/WX    TMP DP  RH WIND       PRES   REMARKS
TRI CITIES     MOSUNNY   55  34  45 SW9       30.01S
$$

TNZ012-013-036-069-073-074-232200-
CENTRAL EAST TENNESSEE

CITY           SKY/WX    TMP DP  RH WIND       PRES   REMARKS
KNOXVILLE      SUNNY     55  34  45 CALM      30.01S
OAK RIDGE      SUNNY     56  30  37 CALM      30.03F
$$

TNZ083-085-099-232200-
SOUTHEAST TENNESSEE

CITY           SKY/WX    TMP DP  RH WIND       PRES   REMARKS
CHATTANOOGA    MOSUNNY   58  31  35 N3        30.02S
$$

SKY/WX REPORTED AS FAIR MEANS FEW OR NO CLOUDS BELOW
12 THOUSAND FEET.




USA.gov is the U.S. government's official web portal to all federal, state and local government web resources and services.